StationID,Date,MaxTemp,MinTemp,Precipitation,Snowfall,SnowDepth
"CA004058000","1943-06-16",77.00,53.06,0.00,0.00,
"CA004058000","1943-06-17",77.00,48.02,3.00,0.00,
"CA004058000","1943-06-18",69.08,46.94,0.00,0.00,
"CA004058000","1943-06-19",77.00,53.96,18.00,0.00,
"CA004058000","1943-06-20",71.96,48.92,0.00,0.00,
"CA004058000","1943-06-21",77.00,53.96,0.00,0.00,
"CA004058000","1943-06-22",78.08,51.98,0.00,0.00,
"CA004058000","1943-06-23",75.02,42.08,0.00,0.00,
"CA004058000","1943-06-24",64.04,42.98,18.00,0.00,
"CA004058000","1943-06-25",78.08,42.98,5.00,0.00,
"CA004058000","1943-06-26",69.98,48.92,46.00,0.00,
"CA004058000","1943-06-27",62.06,37.94,0.00,0.00,
"CA004058000","1943-06-28",69.08,39.92,0.00,0.00,
"CA004058000","1943-06-29",,,0.00,0.00,
"CA004058000","1943-06-30",,,0.00,0.00,
"CA004058000","1943-07-01",71.06,48.02,0.00,0.00,
"CA004058000","1943-07-02",86.00,55.94,0.00,0.00,
"CA004058000","1943-07-03",87.98,60.08,0.00,0.00,
"CA004058000","1943-07-04",87.98,57.92,56.00,0.00,
"CA004058000","1943-07-05",80.06,50.00,0.00,0.00,
"CA004058000","1943-07-06",87.08,57.92,0.00,0.00,
"CA004058000","1943-07-07",91.04,66.02,0.00,0.00,
"CA004058000","1943-07-08",96.08,57.02,0.00,0.00,
"CA004058000","1943-07-09",87.98,51.98,18.00,0.00,
"CA004058000","1943-07-10",78.08,48.02,0.00,0.00,
"CA004058000","1943-07-11",77.00,39.02,0.00,0.00,
"CA004058000","1943-07-12",77.00,51.08,0.00,0.00,
"CA004058000","1943-07-13",78.98,50.00,0.00,0.00,
"CA004058000","1943-07-14",84.02,53.96,279.00,0.00,
"CA004058000","1943-07-15",66.02,51.08,109.00,0.00,
"CA004058000","1943-07-16",68.00,46.94,0.00,0.00,
"CA004058000","1943-07-17",78.98,51.08,0.00,0.00,
"CA004058000","1943-07-18",71.96,50.00,0.00,0.00,
"CA004058000","1943-07-19",80.06,55.94,30.00,0.00,
"CA004058000","1943-07-20",73.04,48.92,0.00,0.00,
"CA004058000","1943-07-21",87.08,57.02,0.00,0.00,
"CA004058000","1943-07-22",78.98,53.96,0.00,0.00,
"CA004058000","1943-07-23",87.98,57.92,64.00,0.00,
"CA004058000","1943-07-24",80.96,46.94,0.00,0.00,
"CA004058000","1943-07-25",73.94,44.06,0.00,0.00,
"CA004058000","1943-07-26",77.00,53.06,0.00,0.00,
"CA004058000","1943-07-27",82.04,53.96,0.00,0.00,
"CA004058000","1943-07-28",87.08,51.98,0.00,0.00,
"CA004058000","1943-07-29",78.98,46.94,0.00,0.00,
"CA004058000","1943-07-30",84.02,55.04,0.00,0.00,
"CA004058000","1943-07-31",78.08,53.96,41.00,0.00,
"CA004058000","1943-08-01",69.98,44.06,0.00,0.00,
"CA004058000","1943-08-02",77.00,53.96,0.00,0.00,
"CA004058000","1943-08-03",80.06,51.98,0.00,0.00,
"CA004058000","1943-08-04",71.06,53.06,0.00,0.00,
"CA004058000","1943-08-05",68.00,53.06,8.00,0.00,
"CA004058000","1943-08-06",75.92,50.00,0.00,0.00,
"CA004058000","1943-08-07",86.00,55.04,0.00,0.00,
"CA004058000","1943-08-08",71.96,53.06,10.00,0.00,
"CA004058000","1943-08-09",75.02,44.06,0.00,0.00,
"CA004058000","1943-08-10",78.08,48.02,0.00,0.00,
"CA004058000","1943-08-11",73.94,53.06,69.00,0.00,
"CA004058000","1943-08-12",69.08,48.02,0.00,0.00,
"CA004058000","1943-08-13",73.04,53.96,0.00,0.00,
"CA004058000","1943-08-14",66.02,46.94,0.00,0.00,
"CA004058000","1943-08-15",73.04,46.04,0.00,0.00,
"CA004058000","1943-08-16",77.00,51.08,0.00,0.00,
"CA004058000","1943-08-17",87.98,55.04,0.00,0.00,
"CA004058000","1943-08-18",89.96,48.92,142.00,0.00,
"CA004058000","1943-08-19",71.96,44.06,0.00,0.00,
"CA004058000","1943-08-20",75.92,42.98,0.00,0.00,
"CA004058000","1943-08-21",75.02,51.98,0.00,0.00,
"CA004058000","1943-08-22",71.06,48.02,15.00,0.00,
"CA004058000","1943-08-23",69.08,48.92,3.00,0.00,
"CA004058000","1943-08-24",69.08,48.92,0.00,0.00,
"CA004058000","1943-08-25",75.92,50.00,0.00,0.00,
"CA004058000","1943-08-26",82.94,51.98,0.00,0.00,
"CA004058000","1943-08-27",80.96,53.06,0.00,0.00,
"CA004058000","1943-08-28",87.98,53.96,0.00,0.00,
"CA004058000","1943-08-29",91.04,55.04,0.00,0.00,
"CA004058000","1943-08-30",82.94,46.94,0.00,0.00,
"CA004058000","1943-08-31",62.06,39.02,13.00,0.00,
"CA004058000","1943-09-01",66.92,37.04,0.00,0.00,
"CA004058000","1943-09-02",66.92,39.92,0.00,0.00,
"CA004058000","1943-09-03",75.92,39.92,0.00,0.00,
"CA004058000","1943-09-04",73.04,44.06,38.00,0.00,
"CA004058000","1943-09-05",53.06,33.08,20.00,0.00,
"CA004058000","1943-09-06",55.04,41.00,30.00,0.00,
"CA004058000","1943-09-07",57.02,35.96,0.00,0.00,
"CA004058000","1943-09-08",64.94,26.96,0.00,0.00,
"CA004058000","1943-09-09",59.00,35.96,0.00,0.00,
"CA004058000","1943-09-10",71.06,39.02,3.00,0.00,
"CA004058000","1943-09-11",64.94,37.04,0.00,0.00,
"CA004058000","1943-09-12",78.08,44.96,0.00,0.00,
"CA004058000","1943-09-13",64.94,39.02,0.00,0.00,
"CA004058000","1943-09-14",57.02,42.08,0.00,0.00,
"CA004058000","1943-09-15",55.04,30.02,3.00,0.00,
"CA004058000","1943-09-16",66.02,33.98,0.00,0.00,
"CA004058000","1943-09-17",77.00,37.04,0.00,0.00,
"CA004058000","1943-09-18",44.96,24.98,48.00,0.00,
"CA004058000","1943-09-19",60.08,37.94,0.00,0.00,
"CA004058000","1943-09-20",60.98,42.98,0.00,0.00,
"CA004058000","1943-09-21",53.96,30.02,0.00,0.00,
"CA004058000","1943-09-22",59.00,33.98,0.00,0.00,
"CA004058000","1943-09-23",60.08,30.92,0.00,0.00,
"CA004058000","1943-09-24",73.04,41.00,0.00,0.00,
"CA004058000","1943-09-25",82.94,37.04,0.00,0.00,
"CA004058000","1943-09-26",86.00,42.98,0.00,0.00,
"CA004058000","1943-09-27",77.00,37.94,0.00,0.00,
"CA004058000","1943-09-28",73.94,39.02,0.00,0.00,
"CA004058000","1943-09-29",69.98,37.94,0.00,0.00,
"CA004058000","1943-09-30",64.94,30.92,0.00,0.00,
"CA004058000","1943-10-01",73.04,35.96,0.00,0.00,
"CA004058000","1943-10-02",78.98,37.04,0.00,0.00,
"CA004058000","1943-10-03",86.00,37.94,0.00,0.00,
"CA004058000","1943-10-04",80.06,39.92,0.00,0.00,
"CA004058000","1943-10-05",89.06,35.96,0.00,0.00,
"CA004058000","1943-10-06",69.08,37.04,0.00,0.00,
"CA004058000","1943-10-07",80.06,37.94,0.00,0.00,
"CA004058000","1943-10-08",71.96,39.02,0.00,0.00,
"CA004058000","1943-10-09",73.94,41.00,0.00,0.00,
"CA004058000","1943-10-10",71.96,42.08,0.00,0.00,
"CA004058000","1943-10-11",51.98,44.96,41.00,0.00,
"CA004058000","1943-10-12",46.04,33.98,0.00,0.00,
"CA004058000","1943-10-13",42.08,33.98,0.00,0.00,
"CA004058000","1943-10-14",50.00,24.98,0.00,0.00,
"CA004058000","1943-10-15",55.04,28.04,5.00,0.00,
"CA004058000","1943-10-16",53.06,26.96,0.00,0.00,
"CA004058000","1943-10-17",51.98,39.92,0.00,0.00,
"CA004058000","1943-10-18",55.04,28.04,0.00,0.00,
"CA004058000","1943-10-19",42.98,35.06,254.00,89.00,
"CA004058000","1943-10-20",37.04,32.00,58.00,0.00,
"CA004058000","1943-10-21",37.04,28.94,0.00,0.00,
"CA004058000","1943-10-22",33.98,30.02,48.00,0.00,
"CA004058000","1943-10-23",35.06,30.92,0.00,0.00,
"CA004058000","1943-10-24",37.04,32.00,0.00,0.00,
"CA004058000","1943-10-25",51.08,33.98,0.00,0.00,
"CA004058000","1943-10-26",46.94,28.04,0.00,0.00,
"CA004058000","1943-10-27",46.04,26.96,0.00,0.00,
"CA004058000","1943-10-28",51.08,24.98,0.00,0.00,
"CA004058000","1943-10-29",55.04,28.04,0.00,0.00,
"CA004058000","1943-10-30",42.08,33.08,20.00,0.00,
"CA004058000","1943-10-31",35.06,28.94,5.00,0.00,
"CA004058000","1943-11-01",33.98,26.96,0.00,0.00,
"CA004058000","1943-11-02",39.92,19.94,0.00,0.00,
"CA004058000","1943-11-03",41.00,19.94,0.00,0.00,
"CA004058000","1943-11-04",37.04,24.08,25.00,25.00,
"CA004058000","1943-11-05",30.02,26.96,38.00,38.00,
"CA004058000","1943-11-06",33.08,26.96,0.00,0.00,
"CA004058000","1943-11-07",33.08,24.98,0.00,0.00,
"CA004058000","1943-11-08",35.06,23.00,0.00,0.00,
"CA004058000","1943-11-09",32.00,28.04,0.00,0.00,
"CA004058000","1943-11-10",37.94,28.04,0.00,0.00,
"CA004058000","1943-11-11",42.98,15.08,0.00,0.00,
"CA004058000","1943-11-12",30.02,15.98,0.00,0.00,
"CA004058000","1943-11-13",35.06,26.06,20.00,20.00,
"CA004058000","1943-11-14",32.00,26.96,0.00,0.00,
"CA004058000","1943-11-15",35.06,24.98,0.00,0.00,
"CA004058000","1943-11-16",46.94,24.08,0.00,0.00,
"CA004058000","1943-11-17",41.00,26.06,0.00,0.00,
"CA004058000","1943-11-18",37.94,15.98,0.00,0.00,
"CA004058000","1943-11-19",41.00,12.92,0.00,0.00,
"CA004058000","1943-11-20",39.02,12.92,0.00,0.00,
"CA004058000","1943-11-21",44.96,21.92,0.00,0.00,
"CA004058000","1943-11-22",48.92,21.02,0.00,0.00,
"CA004058000","1943-11-23",39.92,21.92,0.00,0.00,
"CA004058000","1943-11-24",32.00,12.02,0.00,0.00,
"CA004058000","1943-11-25",33.08,8.06,0.00,0.00,
"CA004058000","1943-11-26",32.00,8.06,0.00,0.00,
"CA004058000","1943-11-27",32.00,14.00,0.00,0.00,
"CA004058000","1943-11-28",30.92,24.08,0.00,0.00,
"CA004058000","1943-11-29",42.98,19.94,0.00,0.00,
"CA004058000","1943-11-30",26.96,-2.02,114.00,114.00,
"CA004058000","1943-12-01",17.06,3.92,0.00,0.00,
"CA004058000","1943-12-02",39.02,17.06,0.00,0.00,
"CA004058000","1943-12-03",37.04,17.96,0.00,0.00,
"CA004058000","1943-12-04",30.02,8.96,0.00,0.00,
"CA004058000","1943-12-05",28.04,15.98,0.00,0.00,
"CA004058000","1943-12-06",37.94,15.08,20.00,20.00,
"CA004058000","1943-12-07",35.06,15.08,0.00,0.00,
"CA004058000","1943-12-08",26.06,3.02,0.00,0.00,
"CA004058000","1943-12-09",33.08,8.96,0.00,0.00,
"CA004058000","1943-12-10",37.04,21.02,0.00,0.00,
"CA004058000","1943-12-11",35.06,-2.02,0.00,0.00,
"CA004058000","1943-12-12",3.92,-4.00,0.00,0.00,
"CA004058000","1943-12-13",5.00,-2.02,0.00,0.00,
"CA004058000","1943-12-14",3.02,-20.92,0.00,0.00,
"CA004058000","1943-12-15",15.08,-5.08,0.00,0.00,
"CA004058000","1943-12-16",26.96,5.00,0.00,0.00,
"CA004058000","1943-12-17",30.02,12.92,0.00,0.00,
"CA004058000","1943-12-18",35.06,14.00,0.00,0.00,
"CA004058000","1943-12-19",37.04,10.94,0.00,0.00,
"CA004058000","1943-12-20",19.94,6.08,0.00,0.00,
"CA004058000","1943-12-21",12.02,-2.92,0.00,0.00,
"CA004058000","1943-12-22",1.04,-27.94,0.00,0.00,
"CA004058000","1943-12-23",10.04,-25.96,0.00,0.00,
"CA004058000","1943-12-24",24.98,8.06,0.00,0.00,
"CA004058000","1943-12-25",30.02,12.02,0.00,0.00,
"CA004058000","1943-12-26",21.92,-4.00,51.00,51.00,
"CA004058000","1943-12-27",26.06,-0.04,0.00,0.00,
"CA004058000","1943-12-28",10.94,3.02,0.00,0.00,
"CA004058000","1943-12-29",26.96,3.02,0.00,0.00,
"CA004058000","1943-12-30",24.98,1.04,0.00,0.00,
"CA004058000","1943-12-31",24.08,1.94,0.00,0.00,
"CA004058000","1944-01-01",21.02,-0.94,0.00,0.00,
"CA004058000","1944-01-02",17.96,-0.94,38.00,38.00,
"CA004058000","1944-01-03",-0.04,-11.02,13.00,13.00,
"CA004058000","1944-01-04",-0.94,-16.06,0.00,0.00,
"CA004058000","1944-01-05",-5.08,-20.02,0.00,0.00,
"CA004058000","1944-01-06",-2.02,-18.04,0.00,0.00,
"CA004058000","1944-01-07",17.06,-5.98,0.00,0.00,
"CA004058000","1944-01-08",28.04,3.92,0.00,0.00,
"CA004058000","1944-01-09",19.94,-11.92,0.00,0.00,
"CA004058000","1944-01-10",3.02,-23.98,0.00,0.00,
"CA004058000","1944-01-11",-2.02,-20.92,0.00,0.00,
"CA004058000","1944-01-12",17.96,-7.06,0.00,0.00,
"CA004058000","1944-01-13",28.04,3.02,0.00,0.00,
"CA004058000","1944-01-14",21.92,3.02,0.00,0.00,
"CA004058000","1944-01-15",19.94,5.00,0.00,0.00,
"CA004058000","1944-01-16",21.92,10.04,0.00,0.00,
"CA004058000","1944-01-17",33.98,19.04,0.00,0.00,
"CA004058000","1944-01-18",35.06,8.96,0.00,0.00,
"CA004058000","1944-01-19",39.02,19.94,0.00,0.00,
"CA004058000","1944-01-20",39.02,17.06,0.00,0.00,
"CA004058000","1944-01-21",33.98,-0.04,0.00,0.00,
"CA004058000","1944-01-22",32.00,5.00,0.00,0.00,
"CA004058000","1944-01-23",33.98,8.06,0.00,0.00,
"CA004058000","1944-01-24",35.06,8.96,0.00,0.00,
"CA004058000","1944-01-25",28.94,6.98,13.00,13.00,
"CA004058000","1944-01-26",17.96,-2.92,0.00,0.00,
"CA004058000","1944-01-27",26.96,-2.02,0.00,0.00,
"CA004058000","1944-01-28",19.94,-5.08,0.00,0.00,
"CA004058000","1944-01-29",26.96,-4.00,0.00,0.00,
"CA004058000","1944-01-30",24.08,-9.04,0.00,0.00,
"CA004058000","1944-01-31",26.06,-2.02,0.00,0.00,
"CA004058000","1944-02-01",19.94,-2.92,0.00,0.00,
"CA004058000","1944-02-02",28.04,-9.94,0.00,0.00,
"CA004058000","1944-02-03",12.02,-11.02,8.00,8.00,
"CA004058000","1944-02-04",1.94,-27.94,0.00,0.00,
"CA004058000","1944-02-05",8.06,-23.08,0.00,0.00,
"CA004058000","1944-02-06",6.08,1.04,0.00,0.00,
"CA004058000","1944-02-07",10.94,-18.04,13.00,13.00,
"CA004058000","1944-02-08",-2.92,-29.02,0.00,0.00,
"CA004058000","1944-02-09",-9.04,-40.00,0.00,0.00,
"CA004058000","1944-02-10",-7.96,-36.94,0.00,0.00,
"CA004058000","1944-02-11",19.94,-11.02,0.00,0.00,
"CA004058000","1944-02-12",28.04,8.06,25.00,25.00,
"CA004058000","1944-02-13",24.98,-2.92,0.00,0.00,
"CA004058000","1944-02-14",3.02,-25.06,0.00,0.00,
"CA004058000","1944-02-15",14.00,-5.98,0.00,0.00,
"CA004058000","1944-02-16",14.00,-34.06,0.00,0.00,
"CA004058000","1944-02-17",17.06,-16.06,0.00,0.00,
"CA004058000","1944-02-18",26.06,5.00,0.00,0.00,
"CA004058000","1944-02-19",24.98,-0.04,0.00,0.00,
"CA004058000","1944-02-20",23.00,1.94,0.00,0.00,
"CA004058000","1944-02-21",12.02,-14.08,0.00,0.00,
"CA004058000","1944-02-22",19.04,-0.94,0.00,0.00,
"CA004058000","1944-02-23",21.92,-9.94,0.00,0.00,
"CA004058000","1944-02-24",21.02,-7.06,0.00,0.00,
"CA004058000","1944-02-25",26.96,6.98,0.00,0.00,
"CA004058000","1944-02-26",28.04,1.94,0.00,0.00,
"CA004058000","1944-02-27",26.06,17.06,0.00,0.00,
"CA004058000","1944-02-28",19.94,8.06,0.00,0.00,
"CA004058000","1944-02-29",17.06,8.06,0.00,0.00,
"CA004058000","1944-03-01",12.92,-14.08,0.00,0.00,
"CA004058000","1944-03-02",1.94,-25.06,51.00,51.00,
"CA004058000","1944-03-03",1.94,-22.00,0.00,0.00,
"CA004058000","1944-03-04",10.04,-27.94,0.00,0.00,
"CA004058000","1944-03-05",3.02,-23.98,0.00,0.00,
"CA004058000","1944-03-06",12.92,-23.98,0.00,0.00,
"CA004058000","1944-03-07",12.02,-20.02,0.00,0.00,
"CA004058000","1944-03-08",19.94,-4.00,0.00,0.00,
"CA004058000","1944-03-09",41.00,12.92,25.00,25.00,
"CA004058000","1944-03-10",30.92,-5.08,0.00,0.00,
"CA004058000","1944-03-11",-0.94,-22.00,0.00,0.00,
"CA004058000","1944-03-12",-2.02,-27.04,0.00,0.00,
"CA004058000","1944-03-13",5.00,-20.02,0.00,0.00,
"CA004058000","1944-03-14",17.96,-7.06,0.00,0.00,
"CA004058000","1944-03-15",33.08,-0.04,13.00,13.00,
"CA004058000","1944-03-16",26.06,-0.94,0.00,0.00,
"CA004058000","1944-03-17",12.02,-4.00,0.00,0.00,
"CA004058000","1944-03-18",28.04,8.96,0.00,0.00,
"CA004058000","1944-03-19",30.92,15.08,0.00,0.00,
"CA004058000","1944-03-20",32.00,15.08,0.00,0.00,
"CA004058000","1944-03-21",35.96,21.92,0.00,0.00,
"CA004058000","1944-03-22",42.08,19.04,0.00,0.00,
"CA004058000","1944-03-23",21.92,-5.98,0.00,0.00,
"CA004058000","1944-03-24",12.02,-16.96,0.00,0.00,
"CA004058000","1944-03-25",24.08,-9.94,0.00,0.00,
"CA004058000","1944-03-26",24.98,5.00,0.00,0.00,
"CA004058000","1944-03-27",24.08,-7.96,0.00,0.00,
"CA004058000","1944-03-28",24.98,3.02,0.00,0.00,
"CA004058000","1944-03-29",28.94,14.00,0.00,0.00,
"CA004058000","1944-03-30",37.94,21.92,0.00,0.00,
"CA004058000","1944-03-31",28.94,17.96,0.00,0.00,
"CA004058000","1944-04-01",30.92,6.08,0.00,0.00,
"CA004058000","1944-04-02",39.02,24.98,0.00,0.00,
"CA004058000","1944-04-03",48.92,28.94,0.00,0.00,
"CA004058000","1944-04-04",53.96,30.92,0.00,0.00,
"CA004058000","1944-04-05",55.94,30.02,0.00,0.00,
"CA004058000","1944-04-06",44.06,26.96,0.00,0.00,
"CA004058000","1944-04-07",50.00,26.06,0.00,0.00,
"CA004058000","1944-04-08",51.08,28.94,0.00,0.00,
"CA004058000","1944-04-09",53.96,30.02,0.00,0.00,
"CA004058000","1944-04-10",57.92,32.00,0.00,0.00,
"CA004058000","1944-04-11",64.04,35.06,0.00,0.00,
"CA004058000","1944-04-12",64.94,37.94,0.00,0.00,
"CA004058000","1944-04-13",51.08,37.04,25.00,0.00,
"CA004058000","1944-04-14",44.06,33.08,0.00,0.00,
"CA004058000","1944-04-15",53.96,28.94,0.00,0.00,
"CA004058000","1944-04-16",55.94,26.96,0.00,0.00,
"CA004058000","1944-04-17",60.08,32.00,0.00,0.00,
"CA004058000","1944-04-18",62.96,32.00,0.00,0.00,
"CA004058000","1944-04-19",55.04,26.96,0.00,0.00,
"CA004058000","1944-04-20",60.98,26.96,0.00,0.00,
"CA004058000","1944-04-21",60.08,30.02,0.00,0.00,
"CA004058000","1944-04-22",60.08,24.98,0.00,0.00,
"CA004058000","1944-04-23",62.06,32.00,0.00,0.00,
"CA004058000","1944-04-24",57.02,35.96,0.00,0.00,
"CA004058000","1944-04-25",62.96,35.96,0.00,0.00,
"CA004058000","1944-04-26",62.96,42.98,0.00,0.00,
"CA004058000","1944-04-27",68.00,44.06,0.00,0.00,
"CA004058000","1944-04-28",73.94,39.02,8.00,0.00,
"CA004058000","1944-04-29",71.96,44.06,0.00,0.00,
"CA004058000","1944-04-30",64.94,46.94,58.00,0.00,
"CA004058000","1944-05-01",48.02,33.98,196.00,0.00,
"CA004058000","1944-05-02",35.06,26.06,38.00,0.00,
"CA004058000","1944-05-03",50.00,26.96,0.00,0.00,
"CA004058000","1944-05-04",55.04,33.08,0.00,0.00,
"CA004058000","1944-05-05",69.08,33.08,0.00,0.00,
"CA004058000","1944-05-06",59.00,30.92,0.00,0.00,
"CA004058000","1944-05-07",60.98,32.00,0.00,0.00,
"CA004058000","1944-05-08",64.94,42.98,0.00,0.00,
"CA004058000","1944-05-09",69.98,37.04,0.00,0.00,
"CA004058000","1944-05-10",64.04,41.00,5.00,0.00,
"CA004058000","1944-05-11",57.92,35.06,0.00,0.00,
"CA004058000","1944-05-12",64.94,41.00,0.00,0.00,
"CA004058000","1944-05-13",77.00,39.92,0.00,0.00,
"CA004058000","1944-05-14",75.92,44.96,0.00,0.00,
"CA004058000","1944-05-15",73.04,44.06,0.00,0.00,
"CA004058000","1944-05-16",68.00,46.94,74.00,0.00,
"CA004058000","1944-05-17",71.96,48.02,23.00,0.00,
"CA004058000","1944-05-18",62.06,46.04,0.00,0.00,
"CA004058000","1944-05-19",64.04,42.98,0.00,0.00,
"CA004058000","1944-05-20",73.94,46.04,53.00,0.00,
"CA004058000","1944-05-21",78.98,51.08,81.00,0.00,
"CA004058000","1944-05-22",73.04,51.98,188.00,0.00,
"CA004058000","1944-05-23",64.94,39.92,0.00,0.00,
"CA004058000","1944-05-24",69.98,44.96,3.00,0.00,
"CA004058000","1944-05-25",68.00,41.00,0.00,0.00,
"CA004058000","1944-05-26",77.00,46.04,0.00,0.00,
"CA004058000","1944-05-27",86.00,51.98,0.00,0.00,
"CA004058000","1944-05-28",84.92,53.06,0.00,0.00,
"CA004058000","1944-05-29",84.92,57.02,0.00,0.00,
"CA004058000","1944-05-30",84.02,57.02,71.00,0.00,
"CA004058000","1944-05-31",82.04,57.02,198.00,0.00,
"CA004058000","1944-06-01",69.08,48.02,91.00,0.00,
"CA004058000","1944-06-02",53.06,37.94,5.00,0.00,
"CA004058000","1944-06-03",44.96,37.94,43.00,0.00,
"CA004058000","1944-06-04",59.00,33.98,0.00,0.00,
"CA004058000","1944-06-05",62.06,39.02,0.00,0.00,
"CA004058000","1944-06-06",73.94,44.06,0.00,0.00,
"CA004058000","1944-06-07",75.02,42.98,0.00,0.00,
"CA004058000","1944-06-08",78.08,44.06,0.00,0.00,
"CA004058000","1944-06-09",73.94,42.08,0.00,0.00,
"CA004058000","1944-06-10",77.00,46.04,0.00,0.00,
"CA004058000","1944-06-11",80.06,48.92,0.00,0.00,
"CA004058000","1944-06-12",73.94,57.92,135.00,0.00,
"CA004058000","1944-06-13",73.94,55.04,13.00,0.00,
"CA004058000","1944-06-14",69.08,48.92,0.00,0.00,
"CA004058000","1944-06-15",66.02,44.06,23.00,0.00,
"CA004058000","1944-06-16",48.02,33.08,0.00,0.00,
"CA004058000","1944-06-17",60.98,37.04,0.00,0.00,
"CA004058000","1944-06-18",69.08,42.98,0.00,0.00,
"CA004058000","1944-06-19",77.00,51.98,3.00,0.00,
"CA004058000","1944-06-20",73.04,44.96,0.00,0.00,
"CA004058000","1944-06-21",57.92,42.98,0.00,0.00,
"CA004058000","1944-06-22",77.00,46.04,0.00,0.00,
"CA004058000","1944-06-23",64.94,46.94,15.00,0.00,
"CA004058000","1944-06-24",73.94,51.08,0.00,0.00,
"CA004058000","1944-06-25",71.96,46.94,0.00,0.00,
"CA004058000","1944-06-26",71.06,48.92,0.00,0.00,
"CA004058000","1944-06-27",69.08,42.08,0.00,0.00,
"CA004058000","1944-06-28",80.06,55.04,0.00,0.00,
"CA004058000","1944-06-29",84.92,57.02,0.00,0.00,
"CA004058000","1944-06-30",91.04,66.02,30.00,0.00,
"CA004058000","1944-07-01",80.06,51.98,36.00,0.00,
"CA004058000","1944-07-02",64.04,44.96,0.00,0.00,
"CA004058000","1944-07-03",73.94,44.96,0.00,0.00,
"CA004058000","1944-07-04",80.06,55.94,69.00,0.00,
"CA004058000","1944-07-05",69.98,48.02,0.00,0.00,
"CA004058000","1944-07-06",73.04,48.02,351.00,0.00,
"CA004058000","1944-07-07",57.02,44.06,38.00,0.00,
"CA004058000","1944-07-08",69.08,42.98,64.00,0.00,
"CA004058000","1944-07-09",64.94,42.08,0.00,0.00,
"CA004058000","1944-07-10",73.04,51.98,0.00,0.00,
"CA004058000","1944-07-11",73.04,51.98,0.00,0.00,
"CA004058000","1944-07-12",87.08,55.04,0.00,0.00,
"CA004058000","1944-07-13",71.96,48.02,0.00,0.00,
"CA004058000","1944-07-14",69.98,44.96,0.00,0.00,
"CA004058000","1944-07-15",80.96,57.92,0.00,0.00,
"CA004058000","1944-07-16",77.00,50.00,0.00,0.00,
"CA004058000","1944-07-17",71.96,50.00,0.00,0.00,
"CA004058000","1944-07-18",80.06,46.94,0.00,0.00,
"CA004058000","1944-07-19",84.02,50.00,0.00,0.00,
"CA004058000","1944-07-20",84.02,53.06,0.00,0.00,
"CA004058000","1944-07-21",91.04,55.94,0.00,0.00,
"CA004058000","1944-07-22",75.92,48.02,0.00,0.00,
"CA004058000","1944-07-23",87.08,55.94,0.00,0.00,
"CA004058000","1944-07-24",87.08,55.04,76.00,0.00,
"CA004058000","1944-07-25",69.98,50.00,13.00,0.00,
"CA004058000","1944-07-26",69.98,42.08,0.00,0.00,
"CA004058000","1944-07-27",73.04,48.02,0.00,0.00,
"CA004058000","1944-07-28",80.06,51.08,0.00,0.00,
"CA004058000","1944-07-29",78.08,53.06,165.00,0.00,
"CA004058000","1944-07-30",71.96,51.98,0.00,0.00,
"CA004058000","1944-07-31",71.96,53.96,102.00,0.00,
"CA004058000","1944-08-01",73.04,46.94,0.00,0.00,
"CA004058000","1944-08-02",80.96,51.08,0.00,0.00,
"CA004058000","1944-08-03",84.92,59.00,0.00,0.00,
"CA004058000","1944-08-04",80.06,57.92,0.00,0.00,
"CA004058000","1944-08-05",93.02,60.98,0.00,0.00,
"CA004058000","1944-08-06",89.06,57.02,3.00,0.00,
"CA004058000","1944-08-07",77.00,46.04,5.00,0.00,
"CA004058000","1944-08-08",80.06,55.04,0.00,0.00,
"CA004058000","1944-08-09",84.92,50.00,0.00,0.00,
"CA004058000","1944-08-10",84.92,48.02,5.00,0.00,
"CA004058000","1944-08-11",75.02,55.94,8.00,0.00,
"CA004058000","1944-08-12",69.08,48.02,0.00,0.00,
"CA004058000","1944-08-13",68.00,35.96,0.00,0.00,
"CA004058000","1944-08-14",68.00,44.96,8.00,0.00,
"CA004058000","1944-08-15",71.06,39.02,0.00,0.00,
"CA004058000","1944-08-16",69.98,44.06,0.00,0.00,
"CA004058000","1944-08-17",75.92,53.96,0.00,0.00,
"CA004058000","1944-08-18",80.96,42.98,8.00,0.00,
"CA004058000","1944-08-19",71.06,46.04,0.00,0.00,
"CA004058000","1944-08-20",73.94,41.00,0.00,0.00,
"CA004058000","1944-08-21",69.08,35.06,0.00,0.00,
"CA004058000","1944-08-22",71.06,42.98,0.00,0.00,
"CA004058000","1944-08-23",78.98,48.02,0.00,0.00,
"CA004058000","1944-08-24",80.96,53.96,61.00,0.00,
"CA004058000","1944-08-25",80.96,53.96,15.00,0.00,
"CA004058000","1944-08-26",73.04,51.98,0.00,0.00,
"CA004058000","1944-08-27",75.92,42.08,0.00,0.00,
"CA004058000","1944-08-28",69.98,51.08,51.00,0.00,
"CA004058000","1944-08-29",71.06,46.04,8.00,0.00,
"CA004058000","1944-08-30",69.98,37.94,0.00,0.00,
"CA004058000","1944-08-31",78.08,44.06,0.00,0.00,
"CA004058000","1944-09-01",80.06,46.04,0.00,0.00,
"CA004058000","1944-09-02",77.00,44.06,0.00,0.00,
"CA004058000","1944-09-03",75.02,39.92,3.00,0.00,
"CA004058000","1944-09-04",69.08,41.00,0.00,0.00,
"CA004058000","1944-09-05",69.08,41.00,0.00,0.00,
"CA004058000","1944-09-06",75.92,48.02,0.00,0.00,
"CA004058000","1944-09-07",82.04,51.08,0.00,0.00,
"CA004058000","1944-09-08",73.04,51.08,208.00,0.00,
"CA004058000","1944-09-09",68.00,37.04,0.00,0.00,
"CA004058000","1944-09-10",71.06,42.08,0.00,0.00,
"CA004058000","1944-09-11",80.06,46.94,0.00,0.00,
"CA004058000","1944-09-12",80.96,51.98,0.00,0.00,
"CA004058000","1944-09-13",82.94,53.96,0.00,0.00,
"CA004058000","1944-09-14",71.06,37.94,0.00,0.00,
"CA004058000","1944-09-15",69.08,37.94,0.00,0.00,
"CA004058000","1944-09-16",66.92,41.00,8.00,0.00,
"CA004058000","1944-09-17",48.92,42.98,3.00,0.00,
"CA004058000","1944-09-18",50.00,44.06,3.00,0.00,
"CA004058000","1944-09-19",64.04,46.04,0.00,0.00,
"CA004058000","1944-09-20",66.02,33.98,0.00,0.00,
"CA004058000","1944-09-21",66.02,37.04,0.00,0.00,
"CA004058000","1944-09-22",66.92,46.94,0.00,0.00,
"CA004058000","1944-09-23",71.96,39.02,0.00,0.00,
"CA004058000","1944-09-24",66.92,44.96,10.00,0.00,
"CA004058000","1944-09-25",51.08,33.08,33.00,0.00,